This demonstration page uses our WeatherBlox Daily Observations layout. Learn more.

Left ArrowRight Arrow

38.88101, -77.10428

Hourly Observations for September 28, 2021

Temp ( °F °C ) Dew Point ( °F °C ) Humidity (%) Winds ( mph kmh ) Pressure ( in mb ) Visibility ( mi km ) Precip ( " mm )
12:52 am 00:52 Clear 69 20.6 55 12.8 61 61 SSW 3 6 29.92 1013 10 16 N/A
1:52 am 01:52 Clear 68 20 55 12.8 63 63 SSW 3 6 29.92 1013 10 16 N/A
2:52 am 02:52 Clear 67 19.4 57 13.9 71 71 N N/A 29.92 1013 10 16 N/A
3:52 am 03:52 Mostly Clear 65 18.3 56 13.3 73 73 SW 3 6 29.90 1012 10 16 N/A
4:52 am 04:52 Mostly Clear 64 17.8 57 13.9 78 78 SSW 5 7 29.89 1012 10 16 N/A
5:52 am 05:52 Partly Cloudy 63 17.2 57 13.9 81 81 SSW 6 9 29.89 1012 10 16 N/A
6:52 am 06:52 Partly Cloudy 64 17.8 57 13.9 78 78 SSW 5 7 29.91 1013 10 16 N/A
7:52 am 07:52 Partly Cloudy 65 18.3 58 14.4 78 78 S 6 9 29.92 1013 10 16 N/A
8:52 am 08:52 Mostly Cloudy 68 20 59 15 73 73 S 5 7 29.91 1013 10 16 N/A
9:52 am 09:52 Mostly Cloudy 71 21.7 60 15.6 68 68 S 7 11 29.91 1013 10 16 N/A
10:52 am 10:52 Mostly Cloudy 76 24.4 62 16.7 62 62 S 13 20 29.91 1013 10 16 N/A
11:14 am 11:14 Cloudy with Light Rain 75 23.9 61 16.1 62 62 S 7 11 29.90 1012 10 16 0.00 0.00
11:52 am 11:52 Mostly Cloudy 82 27.8 61 16.1 49 49 SW 7 11 29.90 1013 10 16 0.00 0.00
12:52 pm 12:52 Mostly Cloudy 79 26.1 61 16.1 54 54 WSW 9 15 29.89 1012 10 16 0.00 0.00
1:52 pm 13:52 Mostly Cloudy 81 27.2 62 16.7 53 53 W 7 11 29.88 1012 10 16 0.00 0.00
2:52 pm 14:52 Sunny 81 27.2 60 15.6 49 49 W 9 15 29.88 1012 10 16 N/A
3:52 pm 15:52 Mostly Cloudy 80 26.7 62 16.7 54 54 NW 9 15 29.88 1012 10 16 N/A
4:52 pm 16:52 Mostly Cloudy 79 26.1 61 16.1 54 54 W 10 17 29.87 1012 10 16 N/A
5:52 pm 17:52 Mostly Cloudy 78 25.6 61 16.1 56 56 W 9 15 29.86 1011 10 16 N/A
6:52 pm 18:52 Cloudy 78 25.6 60 15.6 54 54 W 7 11 29.88 1012 10 16 N/A
7:52 pm 19:52 Mostly Cloudy 76 24.4 61 16.1 60 60 WNW 8 13 29.89 1012 10 16 N/A
8:52 pm 20:52 Mostly Cloudy 75 23.9 61 16.1 62 62 WNW 7 11 29.90 1013 10 16 N/A
9:52 pm 21:52 Partly Cloudy 74 23.3 61 16.1 64 64 WNW 5 7 29.91 1013 10 16 N/A
10:52 pm 22:52 Mostly Clear 72 22.2 61 16.1 68 68 N 6 9 29.92 1013 10 16 N/A
11:52 pm 23:52 Mostly Cloudy 72 22.2 60 15.6 66 66 NNW 10 17 29.93 1013 10 16 N/A

Powered by AerisWeather